When you browse on this site, cookies collect data to enhance your experience and personalize the content and advertising you see.
Visit our Privacy Policy to learn more. By continuing to use the site, you agree to this use of cookies and data.
  • In Romania
  • List of Countries
  • For 7 days
  • Water Temperature
  • Weather Map
  • Weather Widgets
  • user-avatar
    Login

    Hourly Weather Cortina d'Ampezzo

    Today, 13 November, Wednesday

    Time Temperature Precipitation Wind Pressure Humidity
    00:00 +12°C° 1.1 mm 2 mps 745 mmHg 94%
    01:00 +12°C° 1.1 mm 2 mps 745 mmHg 94%
    02:00 +12°C° 0.5 mm 2 mps 745 mmHg 94%
    03:00 +12°C° 0.5 mm 1 mps 745 mmHg 94%
    04:00 +12°C° 0.5 mm 1 mps 744 mmHg 95%
    05:00 +12°C° 0.3 mm 1 mps 745 mmHg 95%
    06:00 +12°C° 0.3 mm 1 mps 745 mmHg 94%
    07:00 +12°C° 0.3 mm 1 mps 745 mmHg 94%
    08:00 +12°C° 0.9 mm 1 mps 745 mmHg 93%
    09:00 +12°C° 0.9 mm 1 mps 746 mmHg 91%
    10:00 +12°C° 0.9 mm 1 mps 746 mmHg 90%
    11:00 +13°C° 0.2 mm 2 mps 747 mmHg 85%
    12:00 +13°C° 0.2 mm 3 mps 747 mmHg 80%
    13:00 +14°C° 0.2 mm 5 mps 748 mmHg 75%
    14:00 +14°C° 0.2 mm 4 mps 748 mmHg 78%
    15:00 +13°C° 0.2 mm 4 mps 748 mmHg 80%
    16:00 +13°C° 0.2 mm 3 mps 749 mmHg 83%
    17:00 +12°C° 0 mm 3 mps 749 mmHg 84%
    18:00 +12°C° 0 mm 2 mps 750 mmHg 84%
    19:00 +12°C° 0 mm 2 mps 751 mmHg 85%
    20:00 +10°C° 0 mm 2 mps 751 mmHg 85%
    21:00 +11°C° 0 mm 1 mps 752 mmHg 85%
    22:00 +11°C° 0 mm 1 mps 752 mmHg 85%
    23:00 +11°C° 0 mm 1 mps 753 mmHg 86%

    Tomorrow, 14 November, Thursday

    Time Temperature Precipitation Wind Pressure Humidity
    00:00 +9°C° 0 mm 2 mps 753 mmHg 86%
    01:00 +9°C° 0 mm 2 mps 753 mmHg 87%
    02:00 +9°C° 0 mm 2 mps 753 mmHg 88%
    03:00 +9°C° 0 mm 2 mps 753 mmHg 89%
    04:00 +9°C° 0 mm 2 mps 753 mmHg 89%
    05:00 +9°C° 0 mm 2 mps 753 mmHg 89%
    06:00 +9°C° 0 mm 3 mps 754 mmHg 89%
    07:00 +8°C° 0 mm 3 mps 754 mmHg 89%
    08:00 +10°C° 0 mm 3 mps 754 mmHg 85%
    09:00 +11°C° 0 mm 3 mps 755 mmHg 80%
    10:00 +13°C° 0 mm 2 mps 755 mmHg 76%
    11:00 +14°C° 0 mm 2 mps 755 mmHg 74%
    12:00 +14°C° 0 mm 2 mps 755 mmHg 72%
    13:00 +15°C° 0 mm 2 mps 755 mmHg 69%
    14:00 +15°C° 0 mm 2 mps 754 mmHg 72%
    15:00 +13°C° 0 mm 3 mps 754 mmHg 75%
    16:00 +13°C° 0 mm 3 mps 753 mmHg 77%
    17:00 +13°C° 0 mm 4 mps 753 mmHg 78%
    18:00 +12°C° 0 mm 4 mps 752 mmHg 79%
    19:00 +12°C° 0 mm 5 mps 752 mmHg 80%
    20:00 +12°C° 0.6 mm 5 mps 752 mmHg 82%
    21:00 +12°C° 0.6 mm 5 mps 751 mmHg 84%
    22:00 +12°C° 0.6 mm 5 mps 751 mmHg 86%
    23:00 +11°C° 1.3 mm 6 mps 751 mmHg 87%

    Day after tomorrow, 15 November, Friday

    Time Temperature Precipitation Wind Pressure Humidity
    00:00 +11°C° 1.3 mm 7 mps 751 mmHg 87%
    01:00 +11°C° 1.3 mm 8 mps 751 mmHg 87%
    02:00 +12°C° 2.9 mm 7 mps 750 mmHg 89%
    03:00 +12°C° 2.9 mm 7 mps 750 mmHg 91%
    04:00 +13°C° 2.9 mm 6 mps 750 mmHg 93%
    05:00 +12°C° 8.4 mm 5 mps 751 mmHg 94%
    06:00 +12°C° 8.4 mm 4 mps 751 mmHg 95%
    07:00 +11°C° 8.4 mm 3 mps 751 mmHg 96%
    08:00 +11°C° 2.7 mm 3 mps 751 mmHg 95%
    09:00 +11°C° 2.7 mm 3 mps 752 mmHg 93%
    10:00 +10°C° 2.7 mm 4 mps 752 mmHg 92%
    11:00 +10°C° 2.7 mm 4 mps 752 mmHg 92%
    12:00 +8°C° 2.7 mm 5 mps 752 mmHg 92%
    13:00 +8°C° 2.7 mm 6 mps 753 mmHg 92%
    14:00 +8°C° 1.6 mm 4 mps 753 mmHg 90%
    15:00 +8°C° 1.6 mm 3 mps 753 mmHg 88%
    16:00 +8°C° 1.6 mm 2 mps 753 mmHg 87%
    17:00 +8°C° 0.2 mm 2 mps 753 mmHg 87%
    18:00 +8°C° 0.2 mm 3 mps 754 mmHg 88%
    19:00 +8°C° 0.2 mm 3 mps 754 mmHg 88%
    20:00 +7°C° 0 mm 4 mps 755 mmHg 88%
    21:00 +7°C° 0 mm 4 mps 755 mmHg 88%
    22:00 +7°C° 0 mm 4 mps 756 mmHg 88%
    23:00 +7°C° 0.4 mm 4 mps 756 mmHg 89%

    16 November, Saturday

    Time Temperature Precipitation Wind Pressure Humidity
    00:00 +8°C° 0.4 mm 3 mps 756 mmHg 90%
    01:00 +9°C° 0.4 mm 3 mps 757 mmHg 90%
    02:00 +9°C° 0.4 mm 3 mps 757 mmHg 91%
    03:00 +9°C° 0.4 mm 3 mps 757 mmHg 91%
    04:00 +9°C° 0.4 mm 3 mps 757 mmHg 91%
    05:00 +9°C° 0.5 mm 3 mps 758 mmHg 91%
    06:00 +9°C° 0.5 mm 2 mps 758 mmHg 91%
    07:00 +9°C° 0.5 mm 2 mps 758 mmHg 91%
    08:00 +10°C° 0.1 mm 3 mps 759 mmHg 89%
    09:00 +11°C° 0.1 mm 3 mps 759 mmHg 87%
    10:00 +12°C° 0.1 mm 3 mps 759 mmHg 84%
    11:00 +12°C° 0.5 mm 3 mps 759 mmHg 83%
    12:00 +13°C° 0.5 mm 3 mps 759 mmHg 82%
    13:00 +13°C° 0.5 mm 3 mps 758 mmHg 80%
    14:00 +12°C° 1.8 mm 4 mps 758 mmHg 84%
    15:00 +10°C° 1.8 mm 5 mps 758 mmHg 87%
    16:00 +9°C° 1.8 mm 6 mps 758 mmHg 90%
    17:00 +9°C° 1.7 mm 5 mps 757 mmHg 89%
    18:00 +8°C° 1.7 mm 5 mps 757 mmHg 89%
    19:00 +8°C° 1.7 mm 4 mps 756 mmHg 88%
    20:00 +8°C° 0.9 mm 4 mps 756 mmHg 89%
    21:00 +8°C° 0.9 mm 4 mps 755 mmHg 89%
    22:00 +8°C° 0.9 mm 4 mps 754 mmHg 89%
    23:00 +8°C° 0.5 mm 5 mps 753 mmHg 88%

    17 November, Sunday

    Time Temperature Precipitation Wind Pressure Humidity
    00:00 +9°C° 0.5 mm 5 mps 753 mmHg 88%
    01:00 +9°C° 0.5 mm 5 mps 752 mmHg 87%
    02:00 +9°C° 0.1 mm 6 mps 751 mmHg 86%
    03:00 +9°C° 0.1 mm 6 mps 750 mmHg 86%
    04:00 +10°C° 0.1 mm 6 mps 749 mmHg 85%
    05:00 +10°C° 0.6 mm 6 mps 749 mmHg 85%
    06:00 +10°C° 0.6 mm 6 mps 748 mmHg 85%
    07:00 +10°C° 0.6 mm 6 mps 748 mmHg 86%
    08:00 +11°C° 1.3 mm 6 mps 747 mmHg 85%
    09:00 +11°C° 1.3 mm 7 mps 746 mmHg 85%
    10:00 +12°C° 1.3 mm 7 mps 746 mmHg 84%
    11:00 +13°C° 0.4 mm 6 mps 745 mmHg 82%
    12:00 +14°C° 0.4 mm 5 mps 744 mmHg 80%
    13:00 +14°C° 0.4 mm 5 mps 743 mmHg 77%
    14:00 +14°C° 0.7 mm 5 mps 744 mmHg 79%
    15:00 +13°C° 0.7 mm 5 mps 744 mmHg 81%
    16:00 +13°C° 0.7 mm 5 mps 744 mmHg 83%
    17:00 +13°C° 0.6 mm 5 mps 745 mmHg 85%
    18:00 +12°C° 0.6 mm 5 mps 746 mmHg 88%
    19:00 +12°C° 0.6 mm 5 mps 747 mmHg 90%
    20:00 +12°C° 0.8 mm 5 mps 748 mmHg 91%
    21:00 +12°C° 0.8 mm 5 mps 749 mmHg 92%
    22:00 +12°C° 0.8 mm 5 mps 750 mmHg 93%
    23:00 +11°C° 0.6 mm 6 mps 750 mmHg 91%

    18 November, Monday

    Time Temperature Precipitation Wind Pressure Humidity
    00:00 +11°C° 0.6 mm 7 mps 751 mmHg 89%
    01:00 +11°C° 0.6 mm 8 mps 752 mmHg 87%
    02:00 +11°C° 0.2 mm 7 mps 752 mmHg 85%
    03:00 +11°C° 0.2 mm 6 mps 753 mmHg 83%
    04:00 +12°C° 0.2 mm 5 mps 754 mmHg 81%
    05:00 +11°C° 0.1 mm 4 mps 754 mmHg 83%
    06:00 +11°C° 0.1 mm 4 mps 755 mmHg 85%
    07:00 +10°C° 0.1 mm 3 mps 755 mmHg 87%
    08:00 +11°C° 0 mm 4 mps 756 mmHg 85%
    09:00 +12°C° 0 mm 4 mps 756 mmHg 83%
    10:00 +13°C° 0 mm 4 mps 756 mmHg 82%
    11:00 +12°C° 0.5 mm 5 mps 756 mmHg 83%
    12:00 +12°C° 0.5 mm 5 mps 756 mmHg 84%
    13:00 +12°C° 0.5 mm 5 mps 756 mmHg 86%
    14:00 +12°C° 1.4 mm 5 mps 756 mmHg 88%
    15:00 +11°C° 1.4 mm 6 mps 756 mmHg 90%
    16:00 +11°C° 1.4 mm 6 mps 755 mmHg 93%
    17:00 +11°C° 2.7 mm 6 mps 756 mmHg 94%
    18:00 +12°C° 2.7 mm 5 mps 756 mmHg 94%
    19:00 +12°C° 2.7 mm 5 mps 756 mmHg 95%
    20:00 +12°C° 2.1 mm 5 mps 756 mmHg 95%
    21:00 +12°C° 2.1 mm 5 mps 756 mmHg 95%
    22:00 +12°C° 2.1 mm 5 mps 756 mmHg 96%
    23:00 +12°C° 0.8 mm 4 mps 756 mmHg 95%
    Show more